Volver al catálogo

COSMOS 2271

ActivoMilitarPO
NORAD 23002·PAYLOAD·🇷🇺 Russia

Lanzado Feb 12, 1994 desde Plesetsk Cosmodrome

Loading…

Próximos Pases (próximas 24 horas)

TLE

ActualizadoSource: Space-Track

Época: Sep 14, 2026, 07:54 UTC

1 23002U 94011D   26257.32976061 -.00000001  00000-0 -65460-4 0  9996
2 23002  82.5614 240.1280 0006965   0.6256 359.4843 12.63524681502749

Sigue COSMOS 2271 en tiempo real con AllMySat

Download on the App Store